Big Rapids, MI

1:03 PM EDT on September 15, 2019 (GMT -0400)
Roben-Hood

Weather History for KRQB - July, 2019

Change the Weather History Date:

Saturday, July 13, 2019

  Actual Average Record
Temperature  
Mean Temperature 74 °F -  
Max Temperature 87 °F 84 °F 94 °F (1974)
Min Temperature 61 °F 56 °F 44 °F (1976)
Cooling Degree Days 9    
Growing Degree Days 24 (Base 50)    
Moisture  
Dew Point 59 °F    
Average Humidity 64    
Maximum Humidity 87    
Minimum Humidity 34    
Precipitation  
Precipitation 0.00 in - - ()
Sea Level Pressure  
Sea Level Pressure 29.96 in    
Wind  
Wind Speed 5 mph (WNW)    
Max Wind Speed 17 mph    
Max Gust Speed 28 mph    
Visibility 10 miles    
Events      
Averages and records for this station are not official NWS values.
T = Trace of Precipitation, MM = Missing Value Source: NWS Daily Summary

Daily Weather History Graph

Daily Weather History Graph

Search for Another Location

Airport or City:

Astronomy

Jul. 13, 2019 Rise Set
Actual Time 6:12 AM EDT 9:22 PM EDT
Civil Twilight 5:37 AM EDT 9:57 PM EDT
Nautical Twilight 4:52 AM EDT 10:42 PM EDT
Astronomical Twilight 3:57 AM EDT 11:36 PM EDT
Moon 6:43 PM EDT (7/13) 3:34 AM EDT (7/13)
Length of Visible Light 16h 20m
Length of Day
15h 10m
Waxing Gibbous, 90% of the Moon is Illuminated
Jul 13
Waxing Gibbous
Jul 16
Full
Jul 24
Last Quarter
Jul 31
New
Aug 7
First Quarter

Hourly Weather History & Observations

Time (EDT) Temp. Heat Index Dew Point Humidity Pressure Visibility Wind Dir Wind Speed Gust Speed Precip Events Conditions
12:15 AM 62.6 °F - 55.9 °F 79% 29.93 in 10.0 mi Calm Calm - N/A   Clear
12:35 AM 61.3 °F - 56.3 °F 83% 29.93 in 10.0 mi Calm Calm - N/A   Clear
12:36 AM 61.3 °F - 56.3 °F 83% 29.93 in 10.0 mi Calm Calm - N/A   Clear
12:55 AM 61.5 °F - 56.3 °F 83% 29.93 in 10.0 mi Calm Calm - N/A   Mostly Cloudy
1:18 AM 62.6 °F - 57.7 °F 84% 29.93 in 10.0 mi Calm Calm - N/A   Overcast
1:36 AM 63.5 °F - 58.1 °F 83% 29.92 in 10.0 mi Calm Calm - N/A   Overcast
1:55 AM 66.0 °F - 57.2 °F 73% 29.92 in 10.0 mi Calm Calm - N/A   Overcast
2:15 AM 69.1 °F - 55.2 °F 61% 29.91 in 10.0 mi SW 3.5 mph - N/A   Overcast
2:38 AM 68.4 °F - 55.4 °F 63% 29.90 in 10.0 mi WSW 3.5 mph - N/A   Overcast
2:56 AM 68.2 °F - 55.2 °F 63% 29.90 in 10.0 mi South 3.5 mph - N/A   Mostly Cloudy
3:15 AM 64.6 °F - 56.8 °F 76% 29.90 in 10.0 mi South 6.9 mph - N/A   Clear
3:16 AM 64.6 °F - 56.8 °F 76% 29.90 in 10.0 mi South 4.6 mph - N/A   Clear
3:35 AM 63.7 °F - 56.8 °F 78% 29.89 in 10.0 mi SSE 3.5 mph - N/A   Clear
3:40 AM 64.2 °F - 56.8 °F 77% 29.89 in 10.0 mi South 6.9 mph - N/A   Clear
3:58 AM 64.2 °F - 56.5 °F 76% 29.89 in 10.0 mi SSE 4.6 mph - N/A   Clear
4:16 AM 63.5 °F - 57.2 °F 80% 29.89 in 10.0 mi SE 4.6 mph - N/A   Clear
4:35 AM 63.7 °F - 57.0 °F 79% 29.89 in 10.0 mi SSE 3.5 mph - N/A   Clear
4:36 AM 63.7 °F - 57.0 °F 79% 29.89 in 10.0 mi SSE 3.5 mph - N/A   Clear
4:55 AM 63.1 °F - 57.4 °F 81% 29.89 in 10.0 mi SSE 3.5 mph - N/A   Scattered Clouds
5:19 AM 63.5 °F - 57.7 °F 81% 29.89 in 10.0 mi South 6.9 mph - N/A   Scattered Clouds
5:37 AM 63.7 °F - 58.1 °F 82% 29.89 in 10.0 mi South 8.1 mph - N/A   Clear
5:55 AM 63.5 °F - 58.5 °F 84% 29.89 in 10.0 mi SSE 5.8 mph - N/A   Clear
5:56 AM 63.5 °F - 58.5 °F 84% 29.89 in 10.0 mi SSE 5.8 mph - N/A   Clear
6:15 AM 63.5 °F - 58.5 °F 84% 29.90 in 10.0 mi Calm Calm - N/A   Clear
6:35 AM 62.6 °F - 58.3 °F 86% 29.91 in 10.0 mi Calm Calm - N/A   Scattered Clouds
6:40 AM 62.6 °F - 58.3 °F 86% 29.91 in 10.0 mi Calm Calm - N/A   Scattered Clouds
6:58 AM 63.0 °F - 59.0 °F 87% 29.91 in 10.0 mi South 4.6 mph - N/A   Scattered Clouds
7:15 AM 63.9 °F - 59.7 °F 86% 29.92 in 10.0 mi SSE 3.5 mph - N/A   Scattered Clouds
7:35 AM 65.1 °F - 60.4 °F 85% 29.92 in 10.0 mi South 3.5 mph - N/A   Scattered Clouds
7:36 AM 65.3 °F - 60.4 °F 84% 29.92 in 10.0 mi South 4.6 mph - N/A   Scattered Clouds
7:55 AM 68.0 °F - 62.2 °F 82% 29.92 in 10.0 mi South 3.5 mph - N/A   Scattered Clouds
8:00 AM 69.3 °F - 63.1 °F 81% 29.92 in 10.0 mi WSW 3.5 mph - N/A   Scattered Clouds
8:18 AM 72.0 °F - 63.9 °F 76% 29.92 in 10.0 mi WSW 3.5 mph - N/A   Clear
8:36 AM 73.6 °F - 64.0 °F 72% 29.92 in 10.0 mi West 5.8 mph - N/A   Clear
8:55 AM 74.5 °F - 64.2 °F 70% 29.92 in 10.0 mi West 8.1 mph - N/A   Clear
9:15 AM 75.6 °F - 64.6 °F 69% 29.92 in 10.0 mi West 6.9 mph - N/A   Clear
9:39 AM 76.6 °F - 65.3 °F 68% 29.93 in 10.0 mi West 8.1 mph - N/A   Clear
9:57 AM 77.9 °F - 66.2 °F 67% 29.93 in 10.0 mi NW 4.6 mph - N/A   Clear
10:15 AM 78.6 °F - 67.3 °F 68% 29.93 in 10.0 mi NW 5.8 mph - N/A   Clear
10:35 AM 79.7 °F - 67.5 °F 66% 29.93 in 10.0 mi NW 5.8 mph - N/A   Clear
10:36 AM 79.7 °F - 67.5 °F 66% 29.93 in 10.0 mi NW 4.6 mph - N/A   Clear
10:55 AM 81.0 °F 83.8 °F 68.2 °F 65% 29.93 in 10.0 mi West 8.1 mph - N/A   Clear
11:18 AM 81.5 °F 84.6 °F 68.5 °F 65% 29.93 in 10.0 mi West 8.1 mph - N/A   Scattered Clouds
11:36 AM 82.8 °F 86.0 °F 68.7 °F 62% 29.93 in 10.0 mi WNW 9.2 mph 18.4 mph N/A   Scattered Clouds
11:55 AM 83.3 °F 87.1 °F 69.4 °F 63% 29.93 in 10.0 mi WSW 11.5 mph - N/A   Scattered Clouds
11:56 AM 83.3 °F 87.1 °F 69.4 °F 63% 29.93 in 10.0 mi WSW 10.4 mph - N/A   Scattered Clouds
12:15 PM 84.6 °F 88.5 °F 69.4 °F 60% 29.93 in 10.0 mi West 6.9 mph 18.4 mph N/A   Mostly Cloudy
12:39 PM 85.1 °F 88.2 °F 67.6 °F 56% 29.93 in 10.0 mi NW 8.1 mph 20.7 mph N/A   Scattered Clouds
12:57 PM 86.0 °F 89.1 °F 67.6 °F 54% 29.94 in 10.0 mi WNW 12.7 mph 21.9 mph N/A   Scattered Clouds
1:15 PM 86.9 °F 89.6 °F 66.9 °F 51% 29.94 in 10.0 mi WNW 9.2 mph 16.1 mph N/A   Scattered Clouds
1:16 PM 86.9 °F 89.6 °F 66.7 °F 51% 29.94 in 10.0 mi WNW 6.9 mph 16.1 mph N/A   Scattered Clouds
1:35 PM 87.3 °F 89.5 °F 65.8 °F 49% 29.94 in 10.0 mi WNW 15.0 mph 23.0 mph N/A   Scattered Clouds
1:55 PM 85.3 °F 86.8 °F 64.8 °F 50% 29.95 in 10.0 mi WNW 15.0 mph 26.5 mph N/A   Scattered Clouds
2:00 PM 85.3 °F 86.6 °F 64.4 °F 49% 29.95 in 10.0 mi NW 11.5 mph 26.5 mph N/A   Scattered Clouds
2:18 PM 87.1 °F 88.6 °F 64.4 °F 47% 29.95 in 10.0 mi West 13.8 mph 20.7 mph N/A   Scattered Clouds
2:36 PM 86.0 °F 87.6 °F 64.9 °F 49% 29.96 in 10.0 mi WNW 15.0 mph 21.9 mph N/A   Mostly Cloudy
2:55 PM 85.8 °F 86.8 °F 63.5 °F 47% 29.97 in 10.0 mi West 16.1 mph 27.6 mph N/A   Mostly Cloudy
2:56 PM 85.8 °F 86.8 °F 63.3 °F 47% 29.97 in 10.0 mi West 15.0 mph 27.6 mph N/A   Scattered Clouds
3:15 PM 83.3 °F 84.4 °F 63.7 °F 51% 29.97 in 10.0 mi WNW 11.5 mph 20.7 mph N/A   Scattered Clouds
3:39 PM 82.9 °F 85.0 °F 66.0 °F 56% 29.98 in 10.0 mi NW 16.1 mph 20.7 mph N/A   Scattered Clouds
3:56 PM 82.2 °F 82.9 °F 61.2 °F 49% 29.98 in 10.0 mi NW 15.0 mph 24.2 mph N/A   Scattered Clouds
4:15 PM 82.4 °F 83.0 °F 61.3 °F 49% 29.98 in 10.0 mi NW 10.4 mph 21.9 mph N/A   Scattered Clouds
4:16 PM 82.4 °F 82.9 °F 61.2 °F 48% 29.98 in 10.0 mi NW 12.7 mph 21.9 mph N/A   Scattered Clouds
4:35 PM 81.1 °F 81.3 °F 57.9 °F 45% 29.98 in 10.0 mi NNW 9.2 mph 23.0 mph N/A   Clear
4:59 PM 80.6 °F 80.5 °F 55.4 °F 42% 29.99 in 10.0 mi NNW 13.8 mph 23.0 mph N/A   Clear
5:16 PM 80.8 °F 80.5 °F 54.1 °F 40% 29.99 in 10.0 mi NW 15.0 mph 23.0 mph N/A   Clear
5:35 PM 80.6 °F - 49.8 °F 34% 29.99 in 10.0 mi NW 17.3 mph 23.0 mph N/A   Clear
5:36 PM 80.4 °F - 49.3 °F 34% 29.99 in 10.0 mi NW 13.8 mph 23.0 mph N/A   Clear
5:55 PM 79.9 °F - 50.9 °F 36% 29.99 in 10.0 mi NNW 11.5 mph 21.9 mph N/A   Clear
6:19 PM 79.3 °F - 51.8 °F 38% 29.99 in 10.0 mi NW 9.2 mph 19.6 mph N/A   Clear
6:37 PM 79.2 °F - 54.1 °F 42% 29.99 in 10.0 mi NNW 5.8 mph - N/A   Clear
6:55 PM 78.6 °F - 52.5 °F 40% 30.00 in 10.0 mi NW 11.5 mph 21.9 mph N/A   Clear
7:15 PM 78.3 °F - 53.8 °F 43% 30.00 in 10.0 mi North 8.1 mph - N/A   Clear
7:39 PM 77.2 °F - 53.8 °F 44% 30.01 in 10.0 mi NW 9.2 mph - N/A   Clear
7:57 PM 76.6 °F - 53.1 °F 44% 30.02 in 10.0 mi NW 8.1 mph - N/A   Clear
8:15 PM 75.9 °F - 53.2 °F 45% 30.02 in 10.0 mi NNW 6.9 mph - N/A   Clear
8:16 PM 75.7 °F - 53.2 °F 45% 30.02 in 10.0 mi NNW 5.8 mph - N/A   Clear
8:35 PM 74.7 °F - 54.0 °F 48% 30.03 in 10.0 mi NNW 3.5 mph - N/A   Clear
8:55 PM 73.8 °F - 54.0 °F 50% 30.04 in 10.0 mi NNW 3.5 mph - N/A   Clear
9:00 PM 73.4 °F - 54.0 °F 50% 30.04 in 10.0 mi NNW 3.5 mph - N/A   Clear
9:18 PM 72.1 °F - 54.0 °F 53% 30.04 in 10.0 mi NNW 3.5 mph - N/A   Clear
9:36 PM 71.6 °F - 54.0 °F 54% 30.05 in 10.0 mi NW 4.6 mph - N/A   Clear
9:55 PM 70.7 °F - 54.1 °F 56% 30.05 in 10.0 mi NNW 3.5 mph - N/A   Clear
9:56 PM 70.5 °F - 54.1 °F 56% 30.05 in 10.0 mi NNW 3.5 mph - N/A   Clear
10:15 PM 69.4 °F - 54.3 °F 59% 30.06 in 10.0 mi Calm Calm - N/A   Clear
10:20 PM 68.9 °F - 54.5 °F 60% 30.06 in 10.0 mi North 3.5 mph - N/A   Clear
10:38 PM 67.6 °F - 54.5 °F 63% 30.07 in 10.0 mi Calm Calm - N/A   Clear
10:56 PM 64.4 °F - 55.8 °F 73% 30.07 in 10.0 mi Calm Calm - N/A   Clear
11:15 PM 63.9 °F - 56.1 °F 76% 30.08 in 10.0 mi WNW 4.6 mph - N/A   Clear
11:16 PM 63.9 °F - 56.1 °F 76% 30.08 in 10.0 mi NW 3.5 mph - N/A   Clear
11:35 PM 61.9 °F - 55.9 °F 81% 30.07 in 10.0 mi NNW 3.5 mph - N/A   Clear
11:59 PM 63.7 °F - 55.6 °F 75% 30.08 in 10.0 mi North 4.6 mph - N/A   Clear